Regional Weather Roundup
Issued by NWS

Home | Current Version | Previous Version | Text Only | Print | Product List | Glossary On
Versions: 1 2 3 4 5 6 7 8 9 10 11 12 13 14 15 16 17 18 19 20 21 22 23 24 25 26 27 28 29 30 31 32 33 34 35 36 37 38 39 40 41 42 43 44 45 46 47 48 49 50
000
ASUS44 KFWD 022315
RWRTX
NORTH TEXAS HOURLY WEATHER ROUNDUP
NATIONAL WEATHER SERVICE FORT WORTH TX
600 PM CDT MON MAY 02 2016

NOTE: "FAIR" INDICATES FEW OR NO CLOUDS BELOW 12,000 FEET WITH NO
SIGNIFICANT WEATHER AND/OR OBSTRUCTIONS TO VISIBILITY.

TXZ118-119-030000-
DALLAS/FORT WORTH METROPLEX

CITY           SKY/WX    TMP DP  RH WIND       PRES   REMARKS
DFW AIRPORT    CLOUDY    64  47  53 N9        30.08S
DALLAS LOVE    PTSUNNY   64  46  52 N13       30.09S
FTW MEACHAM    CLOUDY    65  48  54 N10       30.08S
DAL-EXECUTIVE  CLOUDY    63  48  58 NW12      30.08S
FTW-ALLIANCE   CLOUDY    63  47  55 N14       30.09S
FTW-NAS-JRB    CLOUDY    65  48  54 N13       30.09S
FTW-SPINKS     PTSUNNY   64  48  55 NW9       30.10F
ARLINGTON      CLOUDY    68  48  48 NW12      30.08F
GRAND PRAIRIE  CLOUDY    63  46  55 N9        30.10F
ADDISON        CLOUDY    63  50  63 NW9G16    30.10F
MESQUITE       CLOUDY    63  50  63 NW9       30.09S
LANCASTER      CLOUDY    63  47  57 N13       30.09F
$$

TXZ091>094-102>105-117-120-121-131>134-030000-
NORTH CENTRAL TEXAS

CITY           SKY/WX    TMP DP  RH WIND       PRES   REMARKS
SHRMAN/DENISON CLOUDY    57  42  56 N12       30.11S
GAINESVILLE    CLOUDY    60  45  57 N10       30.12S
BOWIE          PTSUNNY   61  45  55 N8G20     30.10S
BRIDGEPORT     PTSUNNY   66  49  55 N10       30.11F
DECATUR        PTSUNNY   61  45  54 NE9       30.10S
DENTON         CLOUDY    62  47  57 N15       30.09S
MCKINNEY       CLOUDY    62  48  60 N12       30.09S
GREENVILLE     CLOUDY    61  50  67 N9        30.09S
TERRELL        CLOUDY    62  49  62 NW10      30.09S
WAXAHACHIE     PTSUNNY   64  51  62 N9        30.10S
CLEBURNE       PTSUNNY   64  52  63 N7        30.11R
GRANBURY       CLOUDY    67  49  54 N8        30.10S
$$

TXZ083>090-098>101-113>116-127>130-139>142-154-155-030000-
WESTERN NORTH TEXAS

CITY           SKY/WX    TMP DP  RH WIND       PRES   REMARKS
WICHITA FALLS  MOSUNNY   68  42  38 N12       30.08F
WF-KICKAPOO    SUNNY     69  39  34 N9G18     30.10S
VERNON         SUNNY     70  32  24 N9        30.10S
ABILENE        NOT AVBL
BRECKENRIDGE   MOSUNNY   68  43  39 NE7       30.09S
GRAHAM         MOSUNNY   66  46  47 N9        30.08F
MINERAL WELLS  MOSUNNY   66  46  48 N12       30.08S
STEPHENVILLE   CLOUDY    64  47  54 N7        30.12S
COMANCHE       PTSUNNY   63  49  60 N12       30.10S
BROWNWOOD      PTSUNNY   64  48  55 N7        30.10S
COLEMAN        PTSUNNY   67  47  48 N12       30.10F
$$

TXZ143>147-156>162-174-175-030000-
CENTRAL TEXAS

CITY           SKY/WX    TMP DP  RH WIND       PRES   REMARKS
WACO           CLOUDY    63  50  62 N10       30.10R
WACO-MCGREGOR  CLOUDY    62  51  67 N9        30.10S
HILLSBORO      CLOUDY    62  51  67 N10       30.09S
CORSICANA      CLOUDY    64  52  64 N8        30.09S
MEXIA          CLOUDY    62  51  66 N10       30.08R
HEARNE         CLOUDY    64  53  67 NW9       30.08S
CAMERON        CLOUDY    63  52  67 N9        30.09R
TEMPLE         CLOUDY    61  52  72 N9        30.10S
KILLEEN        CLOUDY    59  50  73 N12       30.10R
KILLEEN-SKYLRK CLOUDY    60  50  69 N9        30.11R
FORT HOOD      CLOUDY    59  51  73 N9        30.09R
GATESVILLE     CLOUDY    61  52  72 MISG      30.12S
HAMILTON       PTSUNNY   64  50  61 N9        30.11S
LAMPASAS       CLOUDY    58  51  77 N6        30.10S
$$

TXZ095>097-106>112-122>126-135>138-148>153-164>167-030000-
EAST TEXAS

CITY           SKY/WX    TMP DP  RH WIND       PRES   REMARKS
PARIS          CLOUDY    61  45  55 NW17      30.07S
SULPHUR SPRNGS CLOUDY    63  52  67 NW14      30.09S
MOUNT PLEASANT CLOUDY    64  51  64 NW9       30.07S
GILMER         PTSUNNY   62  53  72 NW10G16   30.04F
MINEOLA        PTSUNNY   63  54  72 NW8       30.07F
TYLER          CLOUDY    65  51  60 N10       30.04F
LONGVIEW       CLOUDY    65  55  70 N12G17    30.02S
MARSHALL       PTSUNNY   65  56  74 NW12      30.04S
ATHENS         CLOUDY    63  50  63 N7        30.05S
PALESTINE      CLOUDY    65  54  67 N12       30.05F
JACKSONVILLE   CLOUDY    65  56  74 N6        30.05S
HENDERSON      CLOUDY    64  55  73 N7        30.04F
CENTER         MOCLDY    70  61  73 N8        29.99F
NACOGDOCHES    PTSUNNY   66  57  72 N8        30.01S
LUFKIN         CLOUDY    67  58  72 NW9       30.01R
$$

SUPPLEMENTAL OBSERVATIONS (CENTRAL)

CITY           SKY/WX    TMP DP  RH WIND       PRES   REMARKS
LAKE TEXOMA      N/A     61  45  55 N13         N/A
CADDO GRASSLND   N/A     61  50  67 N3          N/A
PAT MAYSE LAKE   N/A     61  52  72 NW12        N/A
GREENVILLE       N/A     61  48  63 N13         N/A
CEDAR HILL       N/A     63  48  59 NE6         N/A
LAKE LIMESTONE   N/A     64  54  68 NW7G15      N/A
MCGREGOR         N/A     63  52  67 N5G13       N/A
TEMPLE           N/A     63  52  67 N2          N/A
$$

SUPPLEMENTAL OBSERVATIONS (WEST)

CITY           SKY/WX    TMP DP  RH WIND       PRES   REMARKS
MILLERS CREEK    N/A     70  41  35 N9          N/A
POSSUM KINGDOM   N/A     66  45  45 VRB10       N/A
LBJ GRASSLAND    N/A     66  46  48 N8G20       N/A
GRANBURY         N/A     64  46  52 N9          N/A
COMANCHE         N/A     63  48  59 N9          N/A
HAMBY            N/A     66  41  39 N8          N/A
IVIE RESERVOIR   N/A     66  45  45 N7          N/A
COLORADO BEND    N/A     59  48  67 NE5         N/A
$$

SUPPLEMENTAL OBSERVATIONS (EAST)

CITY           SKY/WX    TMP DP  RH WIND       PRES   REMARKS
CLARKSVILLE      N/A     61  50  67 NW8         N/A
TEXARKANA        N/A     68  57  68 NW6         N/A
LINDEN           N/A     66  54  63 NW6         N/A
CADDO LAKE       N/A     66  57  72 NW3         N/A
GILMER           N/A     64  52  63 N6G15       N/A
HENDERSON        N/A     64  55  72 N9          N/A
LUFKIN           N/A     68  57  68 MISG        N/A
N SABINE NF      N/A     66  59  77 MISG        N/A
S SABINE NF      N/A    N/A N/A N/A N3          N/A
$$

SUPPLEMENTAL OBSERVATIONS ARE A COLLECTION OF AUTOMATED INSTRUMENTS
THAT ARE MAINTAINED BY A VARIETY OF FEDERAL AND STATE AGENCIES.
CERTAIN ELEMENTS...SUCH AS HUMIDITY VALUES AND SUSTAINED WIND
SPEEDS...MAY BE APPROXIMATED.




USA.gov is the U.S. government's official web portal to all federal, state and local government web resources and services.